Temp
-17 -17 -17 -17 -17 -17 -17 -17 -18 -18 -18 -19 -18 -18 -18 -18 -19 -19 -19 -19 -19 -19 -19 -19 -19 -19 -20
-17 -17 -17 -18 -18 -18 -18 -18 -19 -19 -19 -19 -19 -19 -19 -19 -19 -19 -19 -19 -19 -19 -19 -21 -22 -24 -25
-17 -17 -18 -18 -18 -18 -18 -19 -19 -20 -20 -19 -19 -19 -19 -19 -19 -19 -19 -20 -21 -23 -25 -25 -25 -25 -25
-18 -18 -19 -19 -19 -19 -19 -19 -20 -19 -19 -19 -19 -19 -19 -20 -21 -23 -24 -26 -26 -26 -26 -26 -26 -26 -26
-19 -19 -19 -19 -19 -19 -19 -19 -20 -20 -19 -19 -20 -22 -24 -25 -26 -26 -26 -26 -26 -26 -26 -26 -26 -26 -26
-19 -19 -19 -19 -20 -20 -20 -20 -19 -19 -20 -23 -26 -26 -26 -27 -27 -27 -27 -27 -27 -27 -26 -26 -26 -26 -26
-19 -19 -20 -20 -20 -20 -20 -20 -20 -23 -25 -25 -26 -26 -27 -27 -28 -28 -28 -28 -28 -28 -27 -27 -27 -27 -27
-20 -20 -20 -20 -20 -20 -20 -21 -24 -25 -26 -25 -26 -27 -27 -28 -29 -30 -30 -30 -30 -29 -29 -28 -28 -28 -28
-20 -20 -20 -20 -20 -21 -23 -25 -25 -26 -26 -25 -27 -27 -28 -30 -31 -32 -32 -32 -31 -31 -30 -30 -29 -30 -30
-20 -20 -20 -21 -22 -25 -25 -25 -25 -25 -25 -26 -28 -28 -29 -32 -33 -33 -33 -32 -32 -32 -31 -30 -30 -30 -31
-21 -21 -22 -25 -25 -25 -25 -25 -25 -25 -25 -26 -27 -28 -29 -30 -32 -32 -32 -32 -32 -31 -31 -30 -30 -30 -30
-21 -23 -25 -26 -26 -26 -25 -25 -25 -25 -26 -26 -26 -27 -28 -29 -30 -30 -30 -31 -30 -30 -30 -30 -30 -30 -30
-25 -26 -26 -26 -25 -25 -25 -25 -26 -26 -26 -26 -26 -27 -27 -27 -29 -29 -29 -30 -30 -30 -30 -29 -29 -29 -29
-26 -26 -26 -26 -25 -25 -25 -25 -26 -26 -26 -26 -27 -27 -27 -27 -27 -28 -28 -29 -29 -28 -28 -28 -28 -28 -28
-26 -26 -26 -26 -25 -25 -25 -25 -26 -26 -26 -26 -27 -27 -27 -27 -27 -27 -28 -28 -28 -28 -27 -28 -27 -27 -28
-26 -26 -26 -25 -25 -25 -25 -25 -25 -26 -26 -26 -26 -27 -27 -27 -26 -26 -27 -27 -27 -27 -27 -28 -28 -28 -27
-26 -26 -26 -25 -25 -25 -25 -25 -25 -25 -26 -25 -25 -25 -26 -27 -27 -26 -26 -26 -27 -27 -27 -27 -27 -28 -27
Height
5649 5641 5635 5629 5622 5616 5609 5603 5596 5588 5581 5575 5569 5563 5558 5553 5547 5540 5534 5527 5522 5515 5510 5505 5500 5495 5490
5634 5625 5618 5611 5606 5599 5592 5584 5576 5567 5559 5553 5546 5539 5532 5524 5516 5509 5501 5493 5484 5477 5473 5467 5464 5462 5462
5617 5609 5603 5595 5589 5582 5574 5566 5557 5547 5536 5529 5519 5509 5499 5489 5481 5472 5462 5453 5447 5443 5442 5442 5443 5443 5444
5600 5593 5585 5577 5569 5562 5556 5545 5537 5525 5511 5502 5490 5477 5463 5452 5443 5434 5429 5425 5424 5425 5426 5426 5426 5425 5426
5583 5576 5567 5559 5550 5542 5535 5526 5515 5500 5487 5472 5457 5444 5429 5423 5418 5413 5410 5408 5407 5408 5408 5408 5408 5408 5407
5566 5557 5550 5540 5531 5522 5512 5502 5494 5472 5459 5448 5429 5424 5414 5406 5398 5392 5388 5385 5386 5386 5387 5388 5388 5387 5387
5547 5537 5530 5519 5512 5501 5488 5476 5460 5443 5433 5436 5413 5409 5397 5387 5376 5368 5362 5359 5361 5362 5364 5365 5365 5365 5365
5527 5519 5510 5499 5489 5478 5465 5453 5440 5427 5411 5411 5394 5385 5372 5360 5348 5339 5332 5332 5335 5337 5339 5341 5342 5343 5344
5509 5499 5488 5476 5465 5455 5443 5435 5427 5413 5399 5392 5378 5366 5349 5333 5323 5317 5312 5310 5312 5315 5318 5319 5321 5321 5322
5490 5478 5466 5454 5443 5436 5429 5421 5411 5405 5390 5383 5365 5349 5340 5320 5312 5306 5303 5299 5299 5300 5302 5303 5302 5302 5304
5472 5460 5447 5437 5431 5423 5416 5408 5401 5391 5380 5371 5359 5345 5331 5321 5312 5303 5297 5294 5292 5291 5290 5290 5291 5291 5293
5453 5442 5435 5429 5422 5414 5407 5399 5390 5383 5374 5363 5353 5341 5331 5322 5311 5303 5295 5291 5289 5287 5285 5284 5283 5283 5284
5436 5431 5427 5421 5414 5408 5400 5393 5382 5373 5365 5356 5347 5337 5326 5318 5312 5302 5297 5291 5284 5284 5281 5279 5278 5277 5277
5429 5425 5419 5413 5406 5402 5396 5388 5379 5369 5356 5349 5340 5332 5323 5315 5309 5302 5295 5291 5286 5281 5278 5275 5273 5272 5272
5423 5418 5412 5405 5400 5395 5389 5381 5372 5365 5357 5345 5334 5325 5316 5307 5304 5300 5296 5290 5285 5280 5276 5273 5271 5269 5269
5416 5411 5405 5400 5395 5388 5382 5375 5368 5358 5349 5340 5332 5324 5314 5303 5296 5293 5288 5286 5280 5275 5271 5270 5266 5262 5261
5410 5405 5400 5394 5389 5383 5377 5370 5362 5353 5342 5334 5327 5321 5315 5306 5294 5287 5287 5281 5275 5268 5263 5260 5258 5254 5253
Wind_Speed
62 64 66 66 66 68 69 70 71 71 72 73 74 74 76 79 81 85 89 93 97 99 102 104 107 107 95
65 65 66 68 68 69 71 71 71 73 75 77 79 83 86 90 94 97 102 104 105 104 100 89 77 60 55
65 65 67 68 70 71 71 71 74 77 82 86 89 94 98 103 107 106 103 95 86 72 55 49 49 51 52
65 66 69 71 71 73 73 75 78 84 90 95 100 105 105 102 95 81 68 55 47 45 46 48 50 50 50
66 68 70 71 73 75 77 81 85 93 99 101 98 87 74 62 54 53 52 52 51 51 51 52 52 52 52
67 69 71 74 76 80 84 88 94 100 95 71 62 61 64 63 62 62 61 61 59 58 58 57 56 57 57
69 72 75 79 81 86 92 97 92 72 61 59 69 68 71 72 72 72 71 69 66 64 63 62 61 61 60
72 76 79 83 88 92 94 77 58 63 69 63 63 62 64 65 66 68 68 67 65 66 64 63 63 62 59
78 81 85 90 92 85 62 54 56 54 55 55 54 57 60 56 51 51 52 54 56 55 54 55 54 52 49
82 87 91 86 69 51 53 49 43 42 49 46 49 54 50 35 25 30 36 42 45 46 44 42 40 33 28
86 89 73 51 45 50 47 42 43 43 46 44 42 44 44 37 21 25 30 34 37 36 34 28 22 19 19
83 60 40 41 45 43 40 41 43 41 41 43 42 39 35 31 26 26 28 27 25 26 26 25 21 17 16
41 31 36 41 38 36 38 39 41 42 41 40 40 41 40 34 21 26 22 25 30 26 25 26 23 17 15
26 32 37 35 34 34 35 36 38 41 46 44 41 39 37 32 24 18 24 17 23 26 21 13 7 10 11
28 33 31 32 32 32 34 36 38 38 39 41 41 38 38 39 32 24 15 20 22 22 20 17 17 14 14
30 29 29 30 29 31 33 35 36 40 40 39 35 32 33 36 38 35 34 26 25 25 24 21 21 24 17
27 27 28 28 27 28 32 32 36 39 41 40 35 30 26 28 36 36 27 28 26 27 26 22 20 28 24
Wind_Direction
295 297 299 299 299 299 299 299 298 297 295 293 292 292 292 293 292 291 290 289 289 288 287 285 282 280 280
297 297 298 298 298 298 299 299 297 296 296 296 295 295 295 295 294 293 292 290 288 286 285 280 278 272 265
294 297 298 297 298 300 299 299 300 300 299 299 299 298 296 294 294 293 290 285 282 280 272 266 264 264 266
299 299 299 299 300 299 301 303 302 302 300 300 299 298 297 295 291 288 286 281 275 270 268 266 267 269 269
299 299 299 300 301 303 304 304 304 303 303 303 300 297 294 296 296 289 282 277 274 272 271 270 269 270 270
300 301 301 303 306 305 305 305 306 305 305 304 300 300 297 294 289 284 281 278 276 274 273 273 272 270 269
302 305 307 306 306 308 308 309 309 306 303 304 298 296 293 289 285 281 278 277 275 275 274 274 273 272 273
306 306 307 307 308 309 311 310 307 309 308 311 310 306 299 291 284 279 276 275 274 274 274 274 274 275 274
306 306 308 309 310 312 309 311 313 313 315 323 319 316 314 301 286 278 275 276 275 274 274 275 275 273 270
306 308 309 311 311 310 314 316 318 320 321 331 328 334 339 320 301 286 280 279 280 283 284 284 284 281 269
308 309 310 308 311 316 318 321 322 326 329 338 335 338 344 342 316 293 287 286 289 291 294 297 294 281 262
308 309 307 311 314 316 321 323 323 327 332 337 344 343 340 342 332 320 319 313 310 306 305 304 301 287 260
308 306 310 312 313 318 321 324 325 328 331 333 338 342 347 353 338 318 318 307 309 308 304 304 304 298 272
309 311 313 313 315 318 321 325 326 328 329 332 331 331 333 341 349 339 332 336 319 332 335 325 294 273 268
314 317 317 318 318 320 325 327 329 330 329 330 331 331 329 328 334 340 330 323 325 323 323 311 302 299 297
322 322 321 321 321 324 326 329 330 332 334 335 335 336 332 326 333 334 334 341 331 318 312 310 294 292 306
327 325 326 326 327 325 330 332 333 335 335 338 340 341 339 334 328 331 336 331 329 321 314 301 283 276 281